Tracking 20623 objects as of 3-Apr-2020
HD Live streaming from Space Station
objects crossing your sky now

METOP-C

Track METOP-C now!
10-day predictions


NORAD ID: 43689
Int'l Code: 2018-087A
Perigee: 825.9 km
Apogee: 829.0 km
Inclination: 98.7 °
Period: 101.3 minutes
Semi major axis: 7198 km
RCS: Unknown
Launch date: November 7, 2018
Source: European Organisation for the Exploitation of Meteorological Satellites (EUME)
Launch site: FRENCH GUIANA (FRGUI)
aabbcc
Your satellite tracking list
Your tracking list is empty




NASA's NSSDC Master Catalog

Two Line Element Set (TLE):
1 43689U 18087A   20093.84624609 -.00000013 +00000-0 +14046-4 0  9991
2 43689 098.7067 154.5093 0002168 172.0074 188.1138 14.21486397072851
Source of the keplerian elements: AFSPC